Accueil
METAR-TAF:

METAR-TAF

Aéroports :

Aéroport de Nevers-Fourchambault

Nevers, France

latitude: 47-00N, longitude: 003-06E, altitude: 180 m

Observation

Le bulletin a été fait il y a 54 minutes, à 17:00 UTC
Vent 9 kt de nord/nord-ouest
Température 10°C
Humidité 76%
Pression 1026 hPa
Visibilité: 5000 m
Nuages fragmentés à une hauteur de 4500 ft
brume

METAR: LFQG 241700Z AUTO 33009KT 5000 BR BKN045 10/06 Q1026

Heure: 18:54 (17:54 UTC)


TAF: absent

Observations et prévisions météorologiques de plus de 4000 aéroports (messages METAR et TAF).

Les stations disponibles sont représentées par des disques jaunes et rouges sur la carte.

Passer la souris dessus pour voir le nom de la station.

Cliquer dessus pour voir les observations et prévisions météorologiques.

Pour changer de carte: cliquez sur les boutons verts avec une croix noire pour zoomer, sur le bouton vert avec un tiret pour effectuer un zoom arrière, ou sur les flèches vertes pour les cartes adjacentes.


METAR-TAF: